SITE: BDASn,YEAR: 2002,,,,,,,,
date,time,pzhd (cm),DWT (cm),WT elev (m),,,,,
03/23/02,0:00,108.2,219.0,1371.331,,3/23 00:00--7/8 13:30:,,,
03/23/02,0:30,108.0,219.2,1371.329,,Depth to water table:,,,
03/23/02,1:00,107.9,219.3,1371.328,,DWT = SCL - CH - h (all values in cm),,,
03/23/02,1:30,107.8,219.4,1371.327,,where,,,
03/23/02,2:00,107.7,219.5,1371.326,,SCL = sensor cable length = 455.7 cm,,,
03/23/02,2:30,107.7,219.5,1371.326,,CH = casing height of well = 128.5 cm,,,
03/23/02,3:00,107.7,219.5,1371.326,,h = height of water above sensor (from pzhd column),,,
03/23/02,3:30,107.8,219.4,1371.327,,,,,
03/23/02,4:00,107.7,219.5,1371.326,,WT elevation:,,,
03/23/02,4:30,107.7,219.5,1371.326,,Sensor elev = 1370.249 m asl,,,
03/23/02,5:00,107.5,219.7,1371.324,,WT elev = sensor elev + h (from pzhd column),,,
03/23/02,5:30,107.3,219.9,1371.322,,,,,
03/23/02,6:00,107.5,219.7,1371.324,,,,,
03/23/02,6:30,107.2,220.0,1371.321,,No raw data 7/1 12:00--7/8 13:30 (340 d-points).,,,
03/23/02,7:00,106.9,220.3,1371.318,,"Values est from change in c well over that time,",,,
03/23/02,7:30,106.8,220.4,1371.317,,where change in n was 72.3% of c. See,,,
03/23/02,8:00,106.7,220.5,1371.316,,bdas02avg.xls for calculations.,,,
03/23/02,8:30,106.5,220.7,1371.314,,,,,
03/23/02,9:00,106.5,220.7,1371.314,,,,,
03/23/02,9:30,106.5,220.7,1371.314,,,,,
03/23/02,10:00,106.5,220.7,1371.314,,,,,
03/23/02,10:30,106.8,220.4,1371.317,,,,,
03/23/02,11:00,107.0,220.2,1371.319,,,,,
03/23/02,11:30,106.9,220.3,1371.318,,,,,
03/23/02,12:00,107.1,220.1,1371.320,,,,,
03/23/02,12:30,107.2,220.0,1371.321,,,,,
03/23/02,13:00,107.3,219.9,1371.322,,,,,
03/23/02,13:30,107.4,219.8,1371.323,,,,,
03/23/02,14:00,107.5,219.7,1371.324,,,,,
03/23/02,14:30,107.3,219.9,1371.322,,,,,
03/23/02,15:00,107.1,220.1,1371.320,,,,,
03/23/02,15:30,106.8,220.4,1371.317,,,,,
03/23/02,16:00,106.6,220.6,1371.315,,,,,
03/23/02,16:30,106.6,220.6,1371.315,,,,,
03/23/02,17:00,106.5,220.7,1371.314,,,,,
03/23/02,17:30,106.1,221.1,1371.310,,,,,
03/23/02,18:00,105.8,221.4,1371.307,,,,,
03/23/02,18:30,105.7,221.5,1371.306,,,,,
03/23/02,19:00,105.4,221.8,1371.303,,,,,
03/23/02,19:30,105.1,222.1,1371.300,,,,,
03/23/02,20:00,105.0,222.2,1371.299,,,,,
03/23/02,20:30,104.7,222.5,1371.296,,,,,
03/23/02,21:00,104.6,222.6,1371.295,,,,,
03/23/02,21:30,104.4,222.8,1371.293,,,,,
03/23/02,22:00,104.4,222.8,1371.293,,,,,
03/23/02,22:30,104.5,222.7,1371.294,,,,,
03/23/02,23:00,104.5,222.7,1371.294,,,,,
03/23/02,23:30,104.4,222.8,1371.293,,,,,
03/24/02,0:00,104.4,222.8,1371.293,,,,,
03/24/02,0:30,104.3,222.9,1371.292,,,,,
03/24/02,1:00,104.3,222.9,1371.292,,,,,
03/24/02,1:30,104.5,222.7,1371.294,,,,,
03/24/02,2:00,104.6,222.6,1371.295,,,,,
03/24/02,2:30,104.3,222.9,1371.292,,,,,
03/24/02,3:00,104.1,223.1,1371.290,,,,,
03/24/02,3:30,104.2,223.0,1371.291,,,,,
03/24/02,4:00,104.2,223.0,1371.291,,,,,
03/24/02,4:30,104.0,223.2,1371.289,,,,,
03/24/02,5:00,103.9,223.3,1371.288,,,,,
03/24/02,5:30,103.9,223.3,1371.288,,,,,
03/24/02,6:00,103.8,223.4,1371.287,,,,,
03/24/02,6:30,103.6,223.6,1371.285,,,,,
03/24/02,7:00,103.4,223.8,1371.283,,,,,
03/24/02,7:30,103.4,223.8,1371.283,,,,,
03/24/02,8:00,103.1,224.1,1371.280,,,,,
03/24/02,8:30,103.2,224.0,1371.281,,,,,
03/24/02,9:00,103.3,223.9,1371.282,,,,,
03/24/02,9:30,103.3,223.9,1371.282,,,,,
03/24/02,10:00,103.3,223.9,1371.282,,,,,
03/24/02,10:30,103.3,223.9,1371.282,,,,,
03/24/02,11:00,103.3,223.9,1371.282,,,,,
03/24/02,11:30,103.6,223.6,1371.285,,,,,
03/24/02,12:00,103.8,223.4,1371.287,,,,,
03/24/02,12:30,103.8,223.4,1371.287,,,,,
03/24/02,13:00,104.0,223.2,1371.289,,,,,
03/24/02,13:30,104.1,223.1,1371.290,,,,,
03/24/02,14:00,104.1,223.1,1371.290,,,,,
03/24/02,14:30,104.0,223.2,1371.289,,,,,
03/24/02,15:00,104.0,223.2,1371.289,,,,,
03/24/02,15:30,103.8,223.4,1371.287,,,,,
03/24/02,16:00,103.7,223.5,1371.286,,,,,
03/24/02,16:30,103.5,223.7,1371.284,,,,,
03/24/02,17:00,103.3,223.9,1371.282,,,,,
03/24/02,17:30,103.2,224.0,1371.281,,,,,
03/24/02,18:00,103.0,224.2,1371.279,,,,,
03/24/02,18:30,102.9,224.3,1371.278,,,,,
03/24/02,19:00,102.7,224.5,1371.276,,,,,
03/24/02,19:30,102.4,224.8,1371.273,,,,,
03/24/02,20:00,102.2,225.0,1371.271,,,,,
03/24/02,20:30,102.2,225.0,1371.271,,,,,
03/24/02,21:00,101.9,225.3,1371.268,,,,,
03/24/02,21:30,101.8,225.4,1371.267,,,,,
03/24/02,22:00,101.8,225.4,1371.267,,,,,
03/24/02,22:30,101.8,225.4,1371.267,,,,,
03/24/02,23:00,101.8,225.4,1371.267,,,,,
03/24/02,23:30,101.5,225.7,1371.264,,,,,
03/25/02,0:00,101.5,225.7,1371.264,,,,,
03/25/02,0:30,101.5,225.7,1371.264,,,,,
03/25/02,1:00,101.3,225.9,1371.262,,,,,
03/25/02,1:30,101.3,225.9,1371.262,,,,,
03/25/02,2:00,101.4,225.8,1371.263,,,,,
03/25/02,2:30,101.4,225.8,1371.263,,,,,
03/25/02,3:00,101.3,225.9,1371.262,,,,,
03/25/02,3:30,101.3,225.9,1371.262,,,,,
03/25/02,4:00,101.3,225.9,1371.262,,,,,
03/25/02,4:30,101.1,226.1,1371.260,,,,,
03/25/02,5:00,100.9,226.3,1371.258,,,,,
03/25/02,5:30,100.9,226.3,1371.258,,,,,
03/25/02,6:00,100.7,226.5,1371.256,,,,,
03/25/02,6:30,100.6,226.6,1371.255,,,,,
03/25/02,7:00,100.6,226.6,1371.255,,,,,
03/25/02,7:30,100.4,226.8,1371.253,,,,,
03/25/02,8:00,100.5,226.7,1371.254,,,,,
03/25/02,8:30,100.5,226.7,1371.254,,,,,
03/25/02,9:00,100.5,226.7,1371.254,,,,,
03/25/02,9:30,100.5,226.7,1371.254,,,,,
03/25/02,10:00,100.5,226.7,1371.254,,,,,
03/25/02,10:30,100.5,226.7,1371.254,,,,,
03/25/02,11:00,100.6,226.6,1371.255,,,,,
03/25/02,11:30,100.8,226.4,1371.257,,,,,
03/25/02,12:00,100.8,226.4,1371.257,,,,,
03/25/02,12:30,100.9,226.3,1371.258,,,,,
03/25/02,13:00,101.0,226.2,1371.259,,,,,
03/25/02,13:30,101.0,226.2,1371.259,,,,,
03/25/02,14:00,101.2,226.0,1371.261,,,,,
03/25/02,14:30,101.1,226.1,1371.260,,,,,
03/25/02,15:00,101.1,226.1,1371.260,,,,,
03/25/02,15:30,101.0,226.2,1371.259,,,,,
03/25/02,16:00,101.0,226.2,1371.259,,,,,
03/25/02,16:30,101.0,226.2,1371.259,,,,,
03/25/02,17:00,100.8,226.4,1371.257,,,,,
03/25/02,17:30,100.7,226.5,1371.256,,,,,
03/25/02,18:00,100.7,226.5,1371.256,,,,,
03/25/02,18:30,100.5,226.7,1371.254,,,,,
03/25/02,19:00,100.4,226.8,1371.253,,,,,
03/25/02,19:30,100.5,226.7,1371.254,,,,,
03/25/02,20:00,100.5,226.7,1371.254,,,,,
03/25/02,20:30,100.5,226.7,1371.254,,,,,
03/25/02,21:00,100.5,226.7,1371.254,,,,,
03/25/02,21:30,100.5,226.7,1371.254,,,,,
03/25/02,22:00,100.6,226.6,1371.255,,,,,
03/25/02,22:30,100.6,226.6,1371.255,,,,,
03/25/02,23:00,100.6,226.6,1371.255,,,,,
03/25/02,23:30,100.6,226.6,1371.255,,,,,
03/26/02,0:00,100.5,226.7,1371.254,,,,,
03/26/02,0:30,100.7,226.5,1371.256,,,,,
03/26/02,1:00,100.7,226.5,1371.256,,,,,
03/26/02,1:30,100.6,226.6,1371.255,,,,,
03/26/02,2:00,100.8,226.4,1371.257,,,,,
03/26/02,2:30,100.8,226.4,1371.257,,,,,
03/26/02,3:00,100.7,226.5,1371.256,,,,,
03/26/02,3:30,100.7,226.5,1371.256,,,,,
03/26/02,4:00,100.6,226.6,1371.255,,,,,
03/26/02,4:30,100.6,226.6,1371.255,,,,,
03/26/02,5:00,100.6,226.6,1371.255,,,,,
03/26/02,5:30,100.4,226.8,1371.253,,,,,
03/26/02,6:00,100.3,226.9,1371.252,,,,,
03/26/02,6:30,100.3,226.9,1371.252,,,,,
03/26/02,7:00,100.2,227.0,1371.251,,,,,
03/26/02,7:30,100.2,227.0,1371.251,,,,,
03/26/02,8:00,100.2,227.0,1371.251,,,,,
03/26/02,8:30,100.2,227.0,1371.251,,,,,
03/26/02,9:00,100.2,227.0,1371.251,,,,,
03/26/02,9:30,100.2,227.0,1371.251,,,,,
03/26/02,10:00,100.3,226.9,1371.252,,,,,
03/26/02,10:30,100.4,226.8,1371.253,,,,,
03/26/02,11:00,100.4,226.8,1371.253,,,,,
03/26/02,11:30,100.6,226.6,1371.255,,,,,
03/26/02,12:00,100.8,226.4,1371.257,,,,,
03/26/02,12:30,100.9,226.3,1371.258,,,,,
03/26/02,13:00,101.0,226.2,1371.259,,,,,
03/26/02,13:30,101.1,226.1,1371.260,,,,,
03/26/02,14:00,101.2,226.0,1371.261,,,,,
03/26/02,14:30,101.2,226.0,1371.261,,,,,
03/26/02,15:00,101.3,225.9,1371.262,,,,,
03/26/02,15:30,101.2,226.0,1371.261,,,,,
03/26/02,16:00,101.2,226.0,1371.261,,,,,
03/26/02,16:30,101.1,226.1,1371.260,,,,,
03/26/02,17:00,101.0,226.2,1371.259,,,,,
03/26/02,17:30,100.9,226.3,1371.258,,,,,
03/26/02,18:00,100.8,226.4,1371.257,,,,,
03/26/02,18:30,100.5,226.7,1371.254,,,,,
03/26/02,19:00,100.4,226.8,1371.253,,,,,
03/26/02,19:30,100.3,226.9,1371.252,,,,,
03/26/02,20:00,100.2,227.0,1371.251,,,,,
03/26/02,20:30,100.1,227.1,1371.250,,,,,
03/26/02,21:00,100.1,227.1,1371.250,,,,,
03/26/02,21:30,100.0,227.2,1371.249,,,,,
03/26/02,22:00,100.0,227.2,1371.249,,,,,
03/26/02,22:30,99.9,227.3,1371.248,,,,,
03/26/02,23:00,99.9,227.3,1371.248,,,,,
03/26/02,23:30,99.9,227.3,1371.248,,,,,
03/27/02,0:00,99.8,227.4,1371.247,,,,,
03/27/02,0:30,99.9,227.3,1371.248,,,,,
03/27/02,1:00,99.8,227.4,1371.247,,,,,
03/27/02,1:30,99.9,227.3,1371.248,,,,,
03/27/02,2:00,99.9,227.3,1371.248,,,,,
03/27/02,2:30,99.9,227.3,1371.248,,,,,
03/27/02,3:00,99.9,227.3,1371.248,,,,,
03/27/02,3:30,99.9,227.3,1371.248,,,,,
03/27/02,4:00,99.9,227.3,1371.248,,,,,
03/27/02,4:30,99.7,227.5,1371.246,,,,,
03/27/02,5:00,99.7,227.5,1371.246,,,,,
03/27/02,5:30,99.6,227.6,1371.245,,,,,
03/27/02,6:00,99.6,227.6,1371.245,,,,,
03/27/02,6:30,99.5,227.7,1371.244,,,,,
03/27/02,7:00,99.4,227.8,1371.243,,,,,
03/27/02,7:30,99.3,227.9,1371.242,,,,,
03/27/02,8:00,99.3,227.9,1371.242,,,,,
03/27/02,8:30,99.3,227.9,1371.242,,,,,
03/27/02,9:00,99.3,227.9,1371.242,,,,,
03/27/02,9:30,99.3,227.9,1371.242,,,,,
03/27/02,10:00,99.4,227.8,1371.243,,,,,
03/27/02,10:30,99.4,227.8,1371.243,,,,,
03/27/02,11:00,99.4,227.8,1371.243,,,,,
03/27/02,11:30,99.6,227.6,1371.245,,,,,
03/27/02,12:00,99.6,227.6,1371.245,,,,,
03/27/02,12:30,99.7,227.5,1371.246,,,,,
03/27/02,13:00,99.7,227.5,1371.246,,,,,
03/27/02,13:30,99.9,227.3,1371.248,,,,,
03/27/02,14:00,100.1,227.1,1371.250,,,,,
03/27/02,14:30,100.2,227.0,1371.251,,,,,
03/27/02,15:00,100.2,227.0,1371.251,,,,,
03/27/02,15:30,100.2,227.0,1371.251,,,,,
03/27/02,16:00,100.1,227.1,1371.250,,,,,
03/27/02,16:30,100.0,227.2,1371.249,,,,,
03/27/02,17:00,100.0,227.2,1371.249,,,,,
03/27/02,17:30,100.0,227.2,1371.249,,,,,
03/27/02,18:00,99.8,227.4,1371.247,,,,,
03/27/02,18:30,99.7,227.5,1371.246,,,,,
03/27/02,19:00,99.4,227.8,1371.243,,,,,
03/27/02,19:30,99.2,228.0,1371.241,,,,,
03/27/02,20:00,99.1,228.1,1371.240,,,,,
03/27/02,20:30,99.1,228.1,1371.240,,,,,
03/27/02,21:00,99.1,228.1,1371.240,,,,,
03/27/02,21:30,99.1,228.1,1371.240,,,,,
03/27/02,22:00,99.1,228.1,1371.240,,,,,
03/27/02,22:30,99.3,228.0,1371.242,,,,,
03/27/02,23:00,99.3,228.0,1371.242,,,,,
03/27/02,23:30,99.3,228.0,1371.242,,,,,
03/28/02,0:00,99.4,227.9,1371.243,,,,,
03/28/02,0:30,99.4,227.8,1371.243,,,,,
03/28/02,1:00,99.4,227.8,1371.243,,,,,
03/28/02,1:30,99.6,227.6,1371.245,,,,,
03/28/02,2:00,99.6,227.6,1371.245,,,,,
03/28/02,2:30,99.6,227.6,1371.245,,,,,
03/28/02,3:00,99.6,227.6,1371.245,,,,,
03/28/02,3:30,99.5,227.7,1371.244,,,,,
03/28/02,4:00,99.5,227.7,1371.244,,,,,
03/28/02,4:30,99.5,227.7,1371.244,,,,,
03/28/02,5:00,99.4,227.8,1371.243,,,,,
03/28/02,5:30,99.5,227.7,1371.244,,,,,
03/28/02,6:00,99.3,227.9,1371.242,,,,,
03/28/02,6:30,99.2,228.0,1371.241,,,,,
03/28/02,7:00,99.3,227.9,1371.242,,,,,
03/28/02,7:30,99.2,228.0,1371.241,,,,,
03/28/02,8:00,99.2,228.0,1371.241,,,,,
03/28/02,8:30,99.3,227.9,1371.242,,,,,
03/28/02,9:00,99.4,227.8,1371.243,,,,,
03/28/02,9:30,99.4,227.8,1371.243,,,,,
03/28/02,10:00,99.6,227.6,1371.245,,,,,
03/28/02,10:30,99.6,227.6,1371.245,,,,,
03/28/02,11:00,99.8,227.4,1371.247,,,,,
03/28/02,11:30,99.9,227.3,1371.248,,,,,
03/28/02,12:00,100.0,227.2,1371.249,,,,,
03/28/02,12:30,100.1,227.1,1371.250,,,,,
03/28/02,13:00,100.2,227.0,1371.251,,,,,
03/28/02,13:30,100.3,226.9,1371.252,,,,,
03/28/02,14:00,100.3,226.9,1371.252,,,,,
03/28/02,14:30,100.4,226.8,1371.253,,,,,
03/28/02,15:00,100.4,226.8,1371.253,,,,,
03/28/02,15:30,100.5,226.7,1371.254,,,,,
03/28/02,16:00,100.4,226.8,1371.253,,,,,
03/28/02,16:30,100.3,226.9,1371.252,,,,,
03/28/02,17:00,100.2,227.0,1371.251,,,,,
03/28/02,17:30,100.1,227.1,1371.250,,,,,
03/28/02,18:00,100.0,227.2,1371.249,,,,,
03/28/02,18:30,99.7,227.5,1371.246,,,,,
03/28/02,19:00,99.5,227.7,1371.244,,,,,
03/28/02,19:30,99.4,227.9,1371.243,,,,,
03/28/02,20:00,99.3,228.0,1371.242,,,,,
03/28/02,20:30,99.2,228.1,1371.241,,,,,
03/28/02,21:00,99.2,228.1,1371.241,,,,,
03/28/02,21:30,99.2,228.0,1371.241,,,,,
03/28/02,22:00,99.1,228.1,1371.240,,,,,
03/28/02,22:30,99.1,228.1,1371.240,,,,,
03/28/02,23:00,99.0,228.2,1371.239,,,,,
03/28/02,23:30,99.1,228.1,1371.240,,,,,
03/29/02,0:00,99.1,228.1,1371.240,,,,,
03/29/02,0:30,99.1,228.1,1371.240,,,,,
03/29/02,1:00,99.0,228.2,1371.239,,,,,
03/29/02,1:30,99.1,228.1,1371.240,,,,,
03/29/02,2:00,99.2,228.0,1371.241,,,,,
03/29/02,2:30,99.2,228.0,1371.241,,,,,
03/29/02,3:00,99.2,228.0,1371.241,,,,,
03/29/02,3:30,99.2,228.0,1371.241,,,,,
03/29/02,4:00,99.1,228.1,1371.240,,,,,
03/29/02,4:30,99.1,228.1,1371.240,,,,,
03/29/02,5:00,99.0,228.2,1371.239,,,,,
03/29/02,5:30,98.9,228.3,1371.238,,,,,
03/29/02,6:00,98.8,228.4,1371.237,,,,,
03/29/02,6:30,98.8,228.4,1371.237,,,,,
03/29/02,7:00,98.7,228.5,1371.236,,,,,
03/29/02,7:30,98.7,228.5,1371.236,,,,,
03/29/02,8:00,98.7,228.5,1371.236,,,,,
03/29/02,8:30,98.8,228.4,1371.237,,,,,
03/29/02,9:00,98.7,228.5,1371.236,,,,,
03/29/02,9:30,98.7,228.5,1371.236,,,,,
03/29/02,10:00,98.6,228.6,1371.235,,,,,
03/29/02,10:30,98.7,228.5,1371.236,,,,,
03/29/02,11:00,98.6,228.6,1371.235,,,,,
03/29/02,11:30,98.7,228.5,1371.236,,,,,
03/29/02,12:00,98.8,228.4,1371.237,,,,,
03/29/02,12:30,98.7,228.5,1371.236,,,,,
03/29/02,13:00,98.6,228.6,1371.235,,,,,
03/29/02,13:30,98.6,228.6,1371.235,,,,,
03/29/02,14:00,98.6,228.6,1371.235,,,,,
03/29/02,14:30,98.7,228.5,1371.236,,,,,
03/29/02,15:00,98.7,228.5,1371.236,,,,,
03/29/02,15:30,98.7,228.5,1371.236,,,,,
03/29/02,16:00,98.8,228.5,1371.237,,,,,
03/29/02,16:30,98.7,228.6,1371.236,,,,,
03/29/02,17:00,98.7,228.6,1371.236,,,,,
03/29/02,17:30,98.6,228.7,1371.235,,,,,
03/29/02,18:00,98.5,228.7,1371.234,,,,,
03/29/02,18:30,98.4,228.8,1371.233,,,,,
03/29/02,19:00,98.3,228.9,1371.232,,,,,
03/29/02,19:30,98.2,229.0,1371.231,,,,,
03/29/02,20:00,98.0,229.2,1371.229,,,,,
03/29/02,20:30,98.0,229.2,1371.229,,,,,
03/29/02,21:00,97.9,229.3,1371.228,,,,,
03/29/02,21:30,98.2,229.0,1371.231,,,,,
03/29/02,22:00,98.0,229.2,1371.229,,,,,
03/29/02,22:30,98.0,229.2,1371.229,,,,,
03/29/02,23:00,98.1,229.1,1371.230,,,,,
03/29/02,23:30,97.9,229.3,1371.228,,,,,
03/30/02,0:00,97.8,229.4,1371.227,,,,,
03/30/02,0:30,97.8,229.4,1371.227,,,,,
03/30/02,1:00,97.8,229.4,1371.227,,,,,
03/30/02,1:30,97.9,229.3,1371.228,,,,,
03/30/02,2:00,98.0,229.2,1371.229,,,,,
03/30/02,2:30,98.0,229.2,1371.229,,,,,
03/30/02,3:00,98.0,229.2,1371.229,,,,,
03/30/02,3:30,98.1,229.1,1371.230,,,,,
03/30/02,4:00,98.2,229.0,1371.231,,,,,
03/30/02,4:30,98.0,229.2,1371.229,,,,,
03/30/02,5:00,98.1,229.1,1371.230,,,,,
03/30/02,5:30,98.0,229.2,1371.229,,,,,
03/30/02,6:00,97.9,229.3,1371.228,,,,,
03/30/02,6:30,98.0,229.2,1371.229,,,,,
03/30/02,7:00,97.9,229.3,1371.228,,,,,
03/30/02,7:30,97.8,229.4,1371.227,,,,,
03/30/02,8:00,97.8,229.4,1371.227,,,,,
03/30/02,8:30,97.8,229.4,1371.227,,,,,
03/30/02,9:00,97.8,229.4,1371.227,,,,,
03/30/02,9:30,97.9,229.3,1371.228,,,,,
03/30/02,10:00,98.0,229.2,1371.229,,,,,
03/30/02,10:30,98.1,229.1,1371.230,,,,,
03/30/02,11:00,98.1,229.1,1371.230,,,,,
03/30/02,11:30,98.2,229.0,1371.231,,,,,
03/30/02,12:00,98.3,228.9,1371.232,,,,,
03/30/02,12:30,98.2,229.0,1371.231,,,,,
03/30/02,13:00,98.4,228.9,1371.233,,,,,
03/30/02,13:30,98.3,229.0,1371.232,,,,,
03/30/02,14:00,98.4,228.9,1371.233,,,,,
03/30/02,14:30,98.4,228.9,1371.233,,,,,
03/30/02,15:00,98.4,228.8,1371.233,,,,,
03/30/02,15:30,98.4,228.8,1371.233,,,,,
03/30/02,16:00,98.4,228.8,1371.233,,,,,
03/30/02,16:30,98.4,228.8,1371.233,,,,,
03/30/02,17:00,98.3,228.9,1371.232,,,,,
03/30/02,17:30,98.3,228.9,1371.232,,,,,
03/30/02,18:00,98.2,229.0,1371.231,,,,,
03/30/02,18:30,98.0,229.2,1371.229,,,,,
03/30/02,19:00,98.0,229.2,1371.229,,,,,
03/30/02,19:30,97.8,229.4,1371.227,,,,,
03/30/02,20:00,97.7,229.5,1371.226,,,,,
03/30/02,20:30,97.7,229.5,1371.226,,,,,
03/30/02,21:00,97.7,229.5,1371.226,,,,,
03/30/02,21:30,97.6,229.6,1371.225,,,,,
03/30/02,22:00,97.6,229.6,1371.225,,,,,
03/30/02,22:30,97.5,229.7,1371.224,,,,,
03/30/02,23:00,97.6,229.6,1371.225,,,,,
03/30/02,23:30,97.5,229.7,1371.224,,,,,
03/31/02,0:00,97.5,229.7,1371.224,,,,,
03/31/02,0:30,97.6,229.6,1371.225,,,,,
03/31/02,1:00,97.5,229.7,1371.224,,,,,
03/31/02,1:30,97.5,229.7,1371.224,,,,,
03/31/02,2:00,97.6,229.6,1371.225,,,,,
03/31/02,2:30,97.6,229.6,1371.225,,,,,
03/31/02,3:00,97.6,229.6,1371.225,,,,,
03/31/02,3:30,97.6,229.6,1371.225,,,,,
03/31/02,4:00,97.5,229.7,1371.224,,,,,
03/31/02,4:30,97.5,229.7,1371.224,,,,,
03/31/02,5:00,97.5,229.7,1371.224,,,,,
03/31/02,5:30,97.4,229.8,1371.223,,,,,
03/31/02,6:00,97.4,229.8,1371.223,,,,,
03/31/02,6:30,97.3,229.9,1371.222,,,,,
03/31/02,7:00,97.2,230.0,1371.221,,,,,
03/31/02,7:30,97.1,230.1,1371.220,,,,,
03/31/02,8:00,97.1,230.1,1371.220,,,,,
03/31/02,8:30,97.1,230.1,1371.220,,,,,
03/31/02,9:00,97.1,230.1,1371.220,,,,,
03/31/02,9:30,97.2,230.1,1371.221,,,,,
03/31/02,10:00,97.3,230.0,1371.222,,,,,
03/31/02,10:30,97.3,230.0,1371.222,,,,,
03/31/02,11:00,97.4,229.9,1371.223,,,,,
03/31/02,11:30,97.4,229.8,1371.223,,,,,
03/31/02,12:00,97.6,229.6,1371.225,,,,,
03/31/02,12:30,97.7,229.5,1371.226,,,,,
03/31/02,13:00,97.7,229.5,1371.226,,,,,
03/31/02,13:30,97.7,229.5,1371.226,,,,,
03/31/02,14:00,97.8,229.4,1371.227,,,,,
03/31/02,14:30,97.9,229.3,1371.228,,,,,
03/31/02,15:00,98.0,229.2,1371.229,,,,,
03/31/02,15:30,98.0,229.2,1371.229,,,,,
03/31/02,16:00,98.0,229.2,1371.229,,,,,
03/31/02,16:30,98.0,229.2,1371.229,,,,,
03/31/02,17:00,98.0,229.2,1371.229,,,,,
03/31/02,17:30,97.9,229.3,1371.228,,,,,
03/31/02,18:00,97.8,229.4,1371.227,,,,,
03/31/02,18:30,97.8,229.4,1371.227,,,,,
03/31/02,19:00,97.7,229.5,1371.226,,,,,
03/31/02,19:30,97.7,229.5,1371.226,,,,,
03/31/02,20:00,97.6,229.6,1371.225,,,,,
03/31/02,20:30,97.6,229.6,1371.225,,,,,
03/31/02,21:00,97.6,229.6,1371.225,,,,,
03/31/02,21:30,97.4,229.8,1371.223,,,,,
03/31/02,22:00,97.5,229.7,1371.224,,,,,
03/31/02,22:30,97.5,229.7,1371.224,,,,,
03/31/02,23:00,97.4,229.8,1371.223,,,,,
03/31/02,23:30,97.5,229.7,1371.224,,,,,
04/01/02,0:00,97.5,229.7,1371.224,,,,,
04/01/02,0:30,97.5,229.7,1371.224,,,,,
04/01/02,1:00,97.5,229.7,1371.224,,,,,
04/01/02,1:30,97.5,229.7,1371.224,,,,,
04/01/02,2:00,97.5,229.7,1371.224,,,,,
04/01/02,2:30,97.5,229.7,1371.224,,,,,
04/01/02,3:00,97.5,229.7,1371.224,,,,,
04/01/02,3:30,97.4,229.8,1371.223,,,,,
04/01/02,4:00,97.4,229.8,1371.223,,,,,
04/01/02,4:30,97.3,229.9,1371.222,,,,,
04/01/02,5:00,97.3,229.9,1371.222,,,,,
04/01/02,5:30,97.2,230.0,1371.221,,,,,
04/01/02,6:00,97.3,230.0,1371.222,,,,,
04/01/02,6:30,97.2,230.1,1371.221,,,,,
04/01/02,7:00,97.1,230.2,1371.220,,,,,
04/01/02,7:30,97.1,230.2,1371.220,,,,,
04/01/02,8:00,97.1,230.2,1371.220,,,,,
04/01/02,8:30,97.2,230.0,1371.221,,,,,
04/01/02,9:00,97.2,230.0,1371.221,,,,,
04/01/02,9:30,97.2,230.0,1371.221,,,,,
04/01/02,10:00,97.3,229.9,1371.222,,,,,
04/01/02,10:30,97.4,229.8,1371.223,,,,,
04/01/02,11:00,97.4,229.8,1371.223,,,,,
04/01/02,11:30,97.5,229.7,1371.224,,,,,
04/01/02,12:00,97.6,229.6,1371.225,,,,,
04/01/02,12:30,97.6,229.6,1371.225,,,,,
04/01/02,13:00,97.6,229.6,1371.225,,,,,
04/01/02,13:30,97.6,229.6,1371.225,,,,,
04/01/02,14:00,97.6,229.6,1371.225,,,,,
04/01/02,14:30,97.7,229.5,1371.226,,,,,
04/01/02,15:00,97.7,229.5,1371.226,,,,,
04/01/02,15:30,97.6,229.6,1371.225,,,,,
04/01/02,16:00,97.5,229.7,1371.224,,,,,
04/01/02,16:30,97.4,229.8,1371.223,,,,,
04/01/02,17:00,97.3,229.9,1371.222,,,,,
04/01/02,17:30,97.2,230.0,1371.221,,,,,
04/01/02,18:00,97.2,230.0,1371.221,,,,,
04/01/02,18:30,97.1,230.1,1371.220,,,,,
04/01/02,19:00,97.0,230.2,1371.219,,,,,
04/01/02,19:30,96.9,230.3,1371.218,,,,,
04/01/02,20:00,96.8,230.4,1371.217,,,,,
04/01/02,20:30,96.7,230.5,1371.216,,,,,
04/01/02,21:00,96.7,230.5,1371.216,,,,,
04/01/02,21:30,96.6,230.6,1371.215,,,,,
04/01/02,22:00,96.5,230.7,1371.214,,,,,
04/01/02,22:30,96.4,230.8,1371.213,,,,,
04/01/02,23:00,96.4,230.8,1371.213,,,,,
04/01/02,23:30,96.4,230.8,1371.213,,,,,
04/02/02,0:00,96.3,230.9,1371.212,,,,,
04/02/02,0:30,96.3,230.9,1371.212,,,,,
04/02/02,1:00,96.2,231.0,1371.211,,,,,
04/02/02,1:30,96.2,231.0,1371.211,,,,,
04/02/02,2:00,96.2,231.0,1371.211,,,,,
04/02/02,2:30,96.2,231.0,1371.211,,,,,
04/02/02,3:00,96.3,231.0,1371.212,,,,,
04/02/02,3:30,96.3,231.0,1371.212,,,,,
04/02/02,4:00,96.2,231.1,1371.211,,,,,
04/02/02,4:30,96.3,231.0,1371.212,,,,,
04/02/02,5:00,96.2,231.0,1371.211,,,,,
04/02/02,5:30,96.1,231.1,1371.210,,,,,
04/02/02,6:00,96.1,231.1,1371.210,,,,,
04/02/02,6:30,96.1,231.1,1371.210,,,,,
04/02/02,7:00,96.1,231.1,1371.210,,,,,
04/02/02,7:30,96.1,231.1,1371.210,,,,,
04/02/02,8:00,96.0,231.2,1371.209,,,,,
04/02/02,8:30,96.0,231.2,1371.209,,,,,
04/02/02,9:00,96.0,231.2,1371.209,,,,,
04/02/02,9:30,96.0,231.2,1371.209,,,,,
04/02/02,10:00,96.1,231.1,1371.210,,,,,
04/02/02,10:30,96.2,231.0,1371.211,,,,,
04/02/02,11:00,96.2,231.0,1371.211,,,,,
04/02/02,11:30,96.2,231.0,1371.211,,,,,
04/02/02,12:00,96.3,230.9,1371.212,,,,,
04/02/02,12:30,96.4,230.8,1371.213,,,,,
04/02/02,13:00,96.4,230.8,1371.213,,,,,
04/02/02,13:30,96.4,230.8,1371.213,,,,,
04/02/02,14:00,96.4,230.8,1371.213,,,,,
04/02/02,14:30,96.4,230.8,1371.213,,,,,
04/02/02,15:00,96.4,230.8,1371.213,,,,,
04/02/02,15:30,96.3,230.9,1371.212,,,,,
04/02/02,16:00,96.3,230.9,1371.212,,,,,
04/02/02,16:30,96.2,231.0,1371.211,,,,,
04/02/02,17:00,96.2,231.0,1371.211,,,,,
04/02/02,17:30,96.1,231.1,1371.210,,,,,
04/02/02,18:00,95.9,231.3,1371.208,,,,,
04/02/02,18:30,96.0,231.2,1371.209,,,,,
04/02/02,19:00,95.8,231.4,1371.207,,,,,
04/02/02,19:30,95.7,231.5,1371.206,,,,,
04/02/02,20:00,95.5,231.7,1371.204,,,,,
04/02/02,20:30,95.4,231.8,1371.203,,,,,
04/02/02,21:00,95.4,231.8,1371.203,,,,,
04/02/02,21:30,95.4,231.8,1371.203,,,,,
04/02/02,22:00,95.4,231.8,1371.203,,,,,
04/02/02,22:30,95.3,231.9,1371.202,,,,,
04/02/02,23:00,95.3,231.9,1371.202,,,,,
04/02/02,23:30,95.4,231.9,1371.203,,,,,
04/03/02,0:00,95.3,232.0,1371.202,,,,,
04/03/02,0:30,95.3,232.0,1371.202,,,,,
04/03/02,1:00,95.3,232.0,1371.202,,,,,
04/03/02,1:30,95.2,232.1,1371.201,,,,,
04/03/02,2:00,95.2,232.0,1371.201,,,,,
04/03/02,2:30,95.3,231.9,1371.202,,,,,
04/03/02,3:00,95.3,231.9,1371.202,,,,,
04/03/02,3:30,95.2,232.0,1371.201,,,,,
04/03/02,4:00,95.2,232.0,1371.201,,,,,
04/03/02,4:30,95.2,232.0,1371.201,,,,,
04/03/02,5:00,95.2,232.0,1371.201,,,,,
04/03/02,5:30,95.2,232.0,1371.201,,,,,
04/03/02,6:00,95.1,232.1,1371.200,,,,,
04/03/02,6:30,95.1,232.1,1371.200,,,,,
04/03/02,7:00,95.0,232.2,1371.199,,,,,
04/03/02,7:30,95.0,232.2,1371.199,,,,,
04/03/02,8:00,95.1,232.1,1371.200,,,,,
04/03/02,8:30,95.1,232.1,1371.200,,,,,
04/03/02,9:00,95.2,232.0,1371.201,,,,,
04/03/02,9:30,95.3,231.9,1371.202,,,,,
04/03/02,10:00,95.3,231.9,1371.202,,,,,
04/03/02,10:30,95.4,231.8,1371.203,,,,,
04/03/02,11:00,95.5,231.7,1371.204,,,,,
04/03/02,11:30,95.6,231.6,1371.205,,,,,
04/03/02,12:00,95.8,231.4,1371.207,,,,,
04/03/02,12:30,95.9,231.3,1371.208,,,,,
04/03/02,13:00,95.9,231.3,1371.208,,,,,
04/03/02,13:30,96.0,231.2,1371.209,,,,,
04/03/02,14:00,96.0,231.2,1371.209,,,,,
04/03/02,14:30,96.1,231.1,1371.210,,,,,
04/03/02,15:00,96.0,231.2,1371.209,,,,,
04/03/02,15:30,95.9,231.3,1371.208,,,,,
04/03/02,16:00,95.9,231.3,1371.208,,,,,
04/03/02,16:30,95.8,231.4,1371.207,,,,,
04/03/02,17:00,95.7,231.5,1371.206,,,,,
04/03/02,17:30,95.6,231.6,1371.205,,,,,
04/03/02,18:00,95.4,231.8,1371.203,,,,,
04/03/02,18:30,95.2,232.0,1371.201,,,,,
04/03/02,19:00,95.2,232.0,1371.201,,,,,
04/03/02,19:30,95.0,232.2,1371.199,,,,,
04/03/02,20:00,95.0,232.2,1371.199,,,,,
04/03/02,20:30,95.1,232.2,1371.200,,,,,
04/03/02,21:00,95.1,232.2,1371.200,,,,,
04/03/02,21:30,95.1,232.2,1371.200,,,,,